Station Historical Data
Daily Summary for June 19, 2012 Units:  English    Metric   Both
« Previous Day
Next Day »
Daily Weekly Monthly Yearly Custom
  High: Low: Average:
Temperature: 88.2 °F 67.1 °F 78.4 °F
Dew Point: 68.9 °F 60.8 °F 64.7 °F
Humidity: 86% 42% 64%
Wind Speed: 13.0mph 0.0mph 3.3mph
Wind Gust: 14.0mph - -
Wind- - SE
Pressure: 30.09 in 29.98 in -
Precipitation: 0.00 in    
Historical Graphs
 
 
Tabular Data for June 19, 2012
Time Temperature Dew Point Pressure Wind Wind Speed Wind Gust Humidity Rainfall Rate (Hourly) Conditions
00:00 74.9 °F 66.4 °F 29.98 in SE 2.0 mph 3.0 mph 75% 0.00 in
00:05 74.9 °F 66.4 °F 29.99 in SE 3.0 mph 3.0 mph 75% 0.00 in
00:11 74.9 °F 66.4 °F 29.99 in SE 3.0 mph 4.0 mph 75% 0.00 in
00:16 74.8 °F 66.3 °F 29.99 in SE 2.0 mph 4.0 mph 75% 0.00 in
00:21 74.7 °F 66.3 °F 29.99 in SE 2.0 mph 4.0 mph 75% 0.00 in
00:26 74.6 °F 66.2 °F 29.99 in SE 2.0 mph 3.0 mph 75% 0.00 in
00:31 74.4 °F 66.3 °F 30.00 in SE 3.0 mph 4.0 mph 76% 0.00 in
00:36 74.4 °F 66.3 °F 29.99 in SE 3.0 mph 4.0 mph 76% 0.00 in
00:41 74.3 °F 66.2 °F 29.99 in SE 2.0 mph 5.0 mph 76% 0.00 in
00:46 74.4 °F 66.0 °F 29.99 in SE 4.0 mph 6.0 mph 75% 0.00 in
00:51 74.4 °F 66.0 °F 29.99 in SE 2.0 mph 6.0 mph 75% 0.00 in
00:56 74.2 °F 66.2 °F 29.99 in SSE 3.0 mph 4.0 mph 76% 0.00 in
01:01 73.9 °F 65.9 °F 29.99 in SSE 3.0 mph 5.0 mph 76% 0.00 in
01:06 73.9 °F 65.9 °F 29.99 in SE 2.0 mph 5.0 mph 76% 0.00 in
01:11 73.9 °F 65.5 °F 29.99 in SE 4.0 mph 5.0 mph 75% 0.00 in
01:16 74.1 °F 65.3 °F 29.99 in SE 3.0 mph 5.0 mph 74% 0.00 in
01:21 74.0 °F 65.2 °F 29.99 in SSE 2.0 mph 4.0 mph 74% 0.00 in
01:26 73.9 °F 65.1 °F 29.99 in SSE 2.0 mph 5.0 mph 74% 0.00 in
01:31 73.6 °F 64.8 °F 29.99 in SSE 2.0 mph 5.0 mph 74% 0.00 in
01:36 73.5 °F 64.7 °F 29.99 in SE 2.0 mph 3.0 mph 74% 0.00 in
01:41 73.5 °F 64.3 °F 29.99 in ESE 3.0 mph 4.0 mph 73% 0.00 in
01:46 73.6 °F 64.4 °F 29.99 in ESE 4.0 mph 5.0 mph 73% 0.00 in
01:51 73.6 °F 64.4 °F 29.99 in SE 3.0 mph 5.0 mph 73% 0.00 in
01:56 73.6 °F 64.0 °F 29.99 in SE 3.0 mph 5.0 mph 72% 0.00 in
02:01 73.6 °F 64.0 °F 29.99 in SE 5.0 mph 6.0 mph 72% 0.00 in
02:06 73.5 °F 63.9 °F 29.99 in SE 7.0 mph 7.0 mph 72% 0.00 in
02:11 73.4 °F 63.8 °F 29.99 in SE 3.0 mph 7.0 mph 72% 0.00 in
02:16 73.2 °F 63.6 °F 29.99 in SE 5.0 mph 5.0 mph 72% 0.00 in
02:21 73.0 °F 63.8 °F 29.99 in SSE 4.0 mph 4.0 mph 73% 0.00 in
02:26 72.7 °F 63.5 °F 29.99 in SE 3.0 mph 4.0 mph 73% 0.00 in
02:31 72.4 °F 63.7 °F 29.99 in SE 3.0 mph 4.0 mph 74% 0.00 in
02:36 72.1 °F 63.8 °F 29.99 in SSE 2.0 mph 4.0 mph 75% 0.00 in
02:41 71.9 °F 63.5 °F 29.99 in South 2.0 mph 4.0 mph 75% 0.00 in
02:46 71.8 °F 63.8 °F 29.99 in SE 3.0 mph 4.0 mph 76% 0.00 in
02:51 71.6 °F 63.6 °F 29.99 in South 2.0 mph 4.0 mph 76% 0.00 in
02:56 71.5 °F 63.5 °F 29.98 in SE 2.0 mph 5.0 mph 76% 0.00 in
03:02 71.6 °F 63.6 °F 29.99 in SSE 1.0 mph 2.0 mph 76% 0.00 in
03:07 71.6 °F 63.6 °F 29.99 in SSE 2.0 mph 4.0 mph 76% 0.00 in
03:12 71.6 °F 63.6 °F 29.99 in SSE 3.0 mph 4.0 mph 76% 0.00 in
03:17 71.4 °F 63.5 °F 29.98 in SSE 2.0 mph 4.0 mph 76% 0.00 in
03:22 71.1 °F 63.5 °F 29.99 in SE 4.0 mph 4.0 mph 77% 0.00 in
03:27 71.3 °F 63.3 °F 29.99 in SE 3.0 mph 5.0 mph 76% 0.00 in
03:32 71.4 °F 63.5 °F 29.98 in SSE 4.0 mph 4.0 mph 76% 0.00 in
03:37 71.5 °F 63.5 °F 29.98 in SE 5.0 mph 5.0 mph 76% 0.00 in
03:42 71.6 °F 63.3 °F 29.98 in SE 4.0 mph 4.0 mph 75% 0.00 in
03:47 71.4 °F 63.1 °F 29.98 in SE 3.0 mph 5.0 mph 75% 0.00 in
03:52 71.5 °F 63.2 °F 29.98 in SE 4.0 mph 4.0 mph 75% 0.00 in
03:57 71.5 °F 63.2 °F 29.98 in SE 4.0 mph 4.0 mph 75% 0.00 in
04:02 71.6 °F 63.3 °F 29.98 in ESE 3.0 mph 5.0 mph 75% 0.00 in
04:07 71.6 °F 63.3 °F 29.98 in SE 5.0 mph 5.0 mph 75% 0.00 in
04:12 71.5 °F 63.2 °F 29.99 in SE 3.0 mph 5.0 mph 75% 0.00 in
04:17 71.3 °F 63.3 °F 29.99 in SE 3.0 mph 4.0 mph 76% 0.00 in
04:22 70.8 °F 62.9 °F 29.99 in SE 2.0 mph 3.0 mph 76% 0.00 in
04:27 70.6 °F 63.0 °F 29.99 in SE 2.0 mph 3.0 mph 77% 0.00 in
04:32 70.6 °F 63.0 °F 29.99 in SE 4.0 mph 4.0 mph 77% 0.00 in
04:37 70.7 °F 63.1 °F 29.99 in SE 5.0 mph 5.0 mph 77% 0.00 in
04:42 70.5 °F 63.0 °F 29.99 in ESE 2.0 mph 4.0 mph 77% 0.00 in
04:47 70.5 °F 63.0 °F 30.00 in SE 3.0 mph 4.0 mph 77% 0.00 in
04:52 70.5 °F 63.0 °F 30.00 in SE 2.0 mph 4.0 mph 77% 0.00 in
04:57 70.6 °F 63.0 °F 30.00 in SE 3.0 mph 4.0 mph 77% 0.00 in
05:02 70.6 °F 63.4 °F 30.00 in SE 2.0 mph 3.0 mph 78% 0.00 in
05:07 70.6 °F 63.4 °F 30.00 in South 2.0 mph 2.0 mph 78% 0.00 in
05:12 70.6 °F 63.0 °F 30.00 in South 2.0 mph 3.0 mph 77% 0.00 in
05:17 70.9 °F 63.3 °F 30.00 in South 3.0 mph 5.0 mph 77% 0.00 in
05:22 71.2 °F 63.6 °F 30.00 in South 4.0 mph 5.0 mph 77% 0.00 in
05:27 71.2 °F 63.3 °F 30.00 in SSW 2.0 mph 5.0 mph 76% 0.00 in
05:32 71.3 °F 63.3 °F 30.01 in SSW 3.0 mph 5.0 mph 76% 0.00 in
05:37 71.3 °F 63.3 °F 30.01 in SSE 2.0 mph 7.0 mph 76% 0.00 in
05:42 71.0 °F 63.4 °F 30.01 in ESE 4.0 mph 6.0 mph 77% 0.00 in
05:47 70.2 °F 63.4 °F 30.01 in SE 3.0 mph 5.0 mph 79% 0.00 in
05:52 69.6 °F 63.2 °F 30.01 in Calm   2.0 mph 80% 0.00 in
05:57 69.4 °F 63.0 °F 30.01 in SE 2.0 mph 2.0 mph 80% 0.00 in
06:02 69.4 °F 63.3 °F 30.01 in SE 2.0 mph 3.0 mph 81% 0.00 in
06:07 69.4 °F 63.0 °F 30.02 in SE 2.0 mph 2.0 mph 80% 0.00 in
06:12 69.0 °F 62.9 °F 30.02 in ESE 2.0 mph 3.0 mph 81% 0.00 in
06:17 68.5 °F 62.8 °F 30.02 in East 1.0 mph 2.0 mph 82% 0.00 in
06:22 68.3 °F 62.9 °F 30.02 in East 1.0 mph 2.0 mph 83% 0.00 in
06:27 68.1 °F 62.8 °F 30.03 in East 1.0 mph 1.0 mph 83% 0.00 in
06:32 67.9 °F 62.5 °F 30.03 in Calm   1.0 mph 83% 0.00 in
06:37 67.6 °F 62.6 °F 30.03 in Calm   1.0 mph 84% 0.00 in
06:42 67.5 °F 62.8 °F 30.03 in East 1.0 mph 2.0 mph 85% 0.00 in
06:47 67.5 °F 62.8 °F 30.03 in Calm   1.0 mph 85% 0.00 in
06:52 67.4 °F 62.7 °F 30.04 in Calm   1.0 mph 85% 0.00 in
06:57 67.1 °F 62.8 °F 30.04 in ENE 1.0 mph 2.0 mph 86% 0.00 in
07:02 67.2 °F 62.9 °F 30.04 in Calm   1.0 mph 86% 0.00 in
07:08 67.3 °F 63.0 °F 30.04 in Calm   1.0 mph 86% 0.00 in
07:13 67.7 °F 63.4 °F 30.04 in ESE 2.0 mph 2.0 mph 86% 0.00 in
07:18 68.3 °F 63.6 °F 30.04 in East 1.0 mph 4.0 mph 85% 0.00 in
07:23 68.7 °F 64.3 °F 30.04 in ESE 2.0 mph 3.0 mph 86% 0.00 in
07:28 69.3 °F 64.3 °F 30.04 in ESE 2.0 mph 2.0 mph 84% 0.00 in
07:33 69.6 °F 64.6 °F 30.05 in ESE 1.0 mph 2.0 mph 84% 0.00 in
07:38 70.0 °F 64.6 °F 30.05 in SE 3.0 mph 3.0 mph 83% 0.00 in
07:43 70.3 °F 64.6 °F 30.05 in SE 2.0 mph 4.0 mph 82% 0.00 in
07:48 70.5 °F 64.4 °F 30.05 in SE 1.0 mph 3.0 mph 81% 0.00 in
07:53 70.6 °F 64.5 °F 30.05 in ESE 3.0 mph 4.0 mph 81% 0.00 in
07:58 70.6 °F 64.8 °F 30.05 in ESE 1.0 mph 4.0 mph 82% 0.00 in
08:03 70.9 °F 64.8 °F 30.06 in Calm   2.0 mph 81% 0.00 in
08:08 71.7 °F 65.6 °F 30.06 in Calm   1.0 mph 81% 0.00 in
08:13 72.1 °F 65.2 °F 30.06 in SE 2.0 mph 2.0 mph 79% 0.00 in
08:18 72.3 °F 65.1 °F 30.07 in ESE 2.0 mph 3.0 mph 78% 0.00 in
08:23 72.5 °F 65.3 °F 30.07 in ESE 2.0 mph 3.0 mph 78% 0.00 in
08:28 72.6 °F 65.3 °F 30.07 in East 3.0 mph 5.0 mph 78% 0.00 in
08:33 72.7 °F 65.1 °F 30.07 in ESE 3.0 mph 4.0 mph 77% 0.00 in
08:38 73.1 °F 65.8 °F 30.07 in East 2.0 mph 3.0 mph 78% 0.00 in
08:43 73.8 °F 66.2 °F 30.07 in Calm   3.0 mph 77% 0.00 in
08:48 74.6 °F 66.2 °F 30.07 in SE 1.0 mph 4.0 mph 75% 0.00 in
08:53 74.8 °F 66.0 °F 30.07 in ESE 6.0 mph 6.0 mph 74% 0.00 in
08:58 75.0 °F 66.6 °F 30.08 in SSE 3.0 mph 5.0 mph 75% 0.00 in
09:03 75.4 °F 66.2 °F 30.08 in SSE 4.0 mph 5.0 mph 73% 0.00 in
09:08 75.9 °F 66.6 °F 30.08 in SSE 5.0 mph 5.0 mph 73% 0.00 in
09:13 76.2 °F 66.5 °F 30.08 in SE 4.0 mph 5.0 mph 72% 0.00 in
09:18 76.7 °F 66.2 °F 30.08 in SE 4.0 mph 6.0 mph 70% 0.00 in
09:23 77.0 °F 66.5 °F 30.08 in SSE 2.0 mph 8.0 mph 70% 0.00 in
09:28 77.3 °F 65.9 °F 30.08 in SE 3.0 mph 6.0 mph 68% 0.00 in
09:33 77.4 °F 66.0 °F 30.08 in South 5.0 mph 7.0 mph 68% 0.00 in
09:38 77.5 °F 66.5 °F 30.08 in SSW 4.0 mph 6.0 mph 69% 0.00 in
09:43 77.7 °F 66.7 °F 30.08 in South 4.0 mph 6.0 mph 69% 0.00 in
09:48 77.9 °F 66.5 °F 30.08 in SE 6.0 mph 7.0 mph 68% 0.00 in
09:53 78.2 °F 66.8 °F 30.09 in SSE 4.0 mph 6.0 mph 68% 0.00 in
09:58 78.5 °F 66.6 °F 30.09 in SSE 5.0 mph 7.0 mph 67% 0.00 in
10:03 78.9 °F 67.4 °F 30.09 in SSE 7.0 mph 8.0 mph 68% 0.00 in
10:08 78.9 °F 67.0 °F 30.09 in SSE 6.0 mph 8.0 mph 67% 0.00 in
10:13 79.0 °F 67.6 °F 30.08 in SE 5.0 mph 5.0 mph 68% 0.00 in
10:18 78.9 °F 67.9 °F 30.08 in SSE 5.0 mph 8.0 mph 69% 0.00 in
10:24 78.9 °F 67.0 °F 30.08 in SE 3.0 mph 5.0 mph 67% 0.00 in
10:29 79.5 °F 68.4 °F 30.08 in SSE 3.0 mph 4.0 mph 69% 0.00 in
10:34 79.6 °F 67.2 °F 30.08 in SSE 3.0 mph 9.0 mph 66% 0.00 in
10:39 79.9 °F 68.4 °F 30.09 in SE 3.0 mph 8.0 mph 68% 0.00 in
10:44 80.2 °F 68.7 °F 30.09 in SSW 5.0 mph 5.0 mph 68% 0.00 in
10:49 80.5 °F 67.2 °F 30.08 in SE 6.0 mph 7.0 mph 64% 0.00 in
10:54 80.5 °F 67.2 °F 30.09 in South 2.0 mph 6.0 mph 64% 0.00 in
10:59 80.7 °F 68.3 °F 30.08 in Calm   1.0 mph 66% 0.00 in
11:04 81.3 °F 68.4 °F 30.08 in SE 4.0 mph 7.0 mph 65% 0.00 in
11:09 81.3 °F 68.4 °F 30.09 in SE 3.0 mph 6.0 mph 65% 0.00 in
11:14 81.8 °F 68.9 °F 30.09 in SW 2.0 mph 4.0 mph 65% 0.00 in
11:19 81.9 °F 67.6 °F 30.09 in SW 4.0 mph 8.0 mph 62% 0.00 in
11:24 81.9 °F 66.7 °F 30.09 in SE 6.0 mph 12.0 mph 60% 0.00 in
11:29 81.9 °F 65.7 °F 30.09 in SW 5.0 mph 9.0 mph 58% 0.00 in
11:34 82.2 °F 67.4 °F 30.09 in SW 4.0 mph 7.0 mph 61% 0.00 in
11:39 81.9 °F 67.6 °F 30.08 in SSW 3.0 mph 6.0 mph 62% 0.00 in
11:44 82.8 °F 67.5 °F 30.09 in SW 6.0 mph 9.0 mph 60% 0.00 in
11:49 82.2 °F 66.5 °F 30.09 in SE 6.0 mph 8.0 mph 59% 0.00 in
11:54 82.2 °F 67.4 °F 30.08 in SSW 2.0 mph 5.0 mph 61% 0.00 in
11:59 82.8 °F 66.5 °F 30.08 in SW 4.0 mph 6.0 mph 58% 0.00 in
12:04 83.2 °F 66.4 °F 30.08 in South 4.0 mph 9.0 mph 57% 0.00 in
12:09 83.3 °F 65.5 °F 30.08 in SSW 2.0 mph 6.0 mph 55% 0.00 in
12:14 82.6 °F 65.8 °F 30.08 in West 3.0 mph 5.0 mph 57% 0.00 in
12:19 82.7 °F 66.4 °F 30.08 in SW 2.0 mph 5.0 mph 58% 0.00 in
12:24 82.1 °F 65.4 °F 30.08 in SW 2.0 mph 5.0 mph 57% 0.00 in
12:29 82.7 °F 66.4 °F 30.08 in WSW 3.0 mph 6.0 mph 58% 0.00 in
12:34 83.3 °F 66.0 °F 30.09 in South 4.0 mph 8.0 mph 56% 0.00 in
12:39 83.5 °F 66.7 °F 30.09 in South 4.0 mph 6.0 mph 57% 0.00 in
12:44 83.8 °F 65.9 °F 30.08 in SW 4.0 mph 7.0 mph 55% 0.00 in
12:49 84.1 °F 65.7 °F 30.08 in SE 6.0 mph 10.0 mph 54% 0.00 in
12:54 84.2 °F 65.8 °F 30.09 in ESE 6.0 mph 9.0 mph 54% 0.00 in
12:59 84.1 °F 65.1 °F 30.08 in SE 8.0 mph 8.0 mph 53% 0.00 in
13:04 84.3 °F 64.2 °F 30.09 in SE 7.0 mph 12.0 mph 51% 0.00 in
13:09 83.7 °F 64.2 °F 30.08 in SSW 3.0 mph 9.0 mph 52% 0.00 in
13:14 83.4 °F 65.0 °F 30.08 in SSE 4.0 mph 6.0 mph 54% 0.00 in
13:19 83.9 °F 68.1 °F 30.09 in SSE 5.0 mph 5.0 mph 59% 0.00 in
13:24 84.5 °F 65.5 °F 30.08 in SE 7.0 mph 12.0 mph 53% 0.00 in
13:29 84.4 °F 64.9 °F 30.08 in ESE 5.0 mph 9.0 mph 52% 0.00 in
13:34 84.2 °F 65.2 °F 30.08 in SE 5.0 mph 12.0 mph 53% 0.00 in
13:39 84.2 °F 64.7 °F 30.08 in SE 5.0 mph 10.0 mph 52% 0.00 in
13:44 84.2 °F 64.7 °F 30.08 in SE 2.0 mph 7.0 mph 52% 0.00 in
13:49 84.4 °F 65.4 °F 30.08 in ENE 3.0 mph 9.0 mph 53% 0.00 in
13:54 84.7 °F 66.8 °F 30.08 in ESE 4.0 mph 5.0 mph 55% 0.00 in
13:59 85.0 °F 66.0 °F 30.07 in SE 4.0 mph 9.0 mph 53% 0.00 in
14:04 85.6 °F 64.8 °F 30.07 in East 8.0 mph 10.0 mph 50% 0.00 in
14:09 85.4 °F 62.9 °F 30.07 in ENE 5.0 mph 9.0 mph 47% 0.00 in
14:15 85.4 °F 64.1 °F 30.07 in SSE 2.0 mph 6.0 mph 49% 0.00 in
14:20 85.9 °F 63.3 °F 30.07 in SSE 8.0 mph 11.0 mph 47% 0.00 in
14:25 85.6 °F 64.3 °F 30.07 in SE 4.0 mph 7.0 mph 49% 0.00 in
14:30 85.5 °F 64.2 °F 30.07 in SSE 7.0 mph 8.0 mph 49% 0.00 in
14:35 84.9 °F 64.2 °F 30.07 in SE 10.0 mph 10.0 mph 50% 0.00 in
14:40 84.9 °F 65.3 °F 30.07 in SW 5.0 mph 8.0 mph 52% 0.00 in
14:45 85.7 °F 63.8 °F 30.06 in SSW 3.0 mph 6.0 mph 48% 0.00 in
14:50 86.1 °F 67.0 °F 30.06 in East 8.0 mph 13.0 mph 53% 0.00 in
14:55 86.4 °F 66.7 °F 30.06 in ESE 4.0 mph 9.0 mph 52% 0.00 in
15:00 86.4 °F 64.4 °F 30.07 in SE 7.0 mph 12.0 mph 48% 0.00 in
15:05 86.7 °F 64.7 °F 30.06 in SE 9.0 mph 9.0 mph 48% 0.00 in
15:10 87.0 °F 66.7 °F 30.06 in SE 3.0 mph 6.0 mph 51% 0.00 in
15:15 86.7 °F 65.3 °F 30.06 in SE 6.0 mph 6.0 mph 49% 0.00 in
15:20 86.7 °F 64.1 °F 30.05 in SSE 6.0 mph 7.0 mph 47% 0.00 in
15:25 87.2 °F 65.1 °F 30.05 in SSE 2.0 mph 6.0 mph 48% 0.00 in
15:30 86.9 °F 63.0 °F 30.05 in ESE 5.0 mph 10.0 mph 45% 0.00 in
15:35 86.8 °F 62.9 °F 30.05 in SE 4.0 mph 8.0 mph 45% 0.00 in
15:40 87.1 °F 64.4 °F 30.05 in SE 10.0 mph 10.0 mph 47% 0.00 in
15:45 86.8 °F 62.9 °F 30.05 in SE 4.0 mph 7.0 mph 45% 0.00 in
15:50 86.6 °F 64.0 °F 30.05 in SE 6.0 mph 10.0 mph 47% 0.00 in
15:55 86.9 °F 63.7 °F 30.05 in SSE 6.0 mph 14.0 mph 46% 0.00 in
16:00 87.2 °F 62.0 °F 30.04 in SE 4.0 mph 11.0 mph 43% 0.00 in
16:05 87.8 °F 64.5 °F 30.04 in SE 1.0 mph 6.0 mph 46% 0.00 in
16:10 88.0 °F 64.0 °F 30.04 in ESE 4.0 mph 4.0 mph 45% 0.00 in
16:15 88.2 °F 63.6 °F 30.04 in East 5.0 mph 6.0 mph 44% 0.00 in
16:20 87.7 °F 63.8 °F 30.04 in SE 3.0 mph 10.0 mph 45% 0.00 in
16:25 87.4 °F 64.1 °F 30.04 in ESE 8.0 mph 11.0 mph 46% 0.00 in
16:30 87.0 °F 62.5 °F 30.04 in ESE 8.0 mph 10.0 mph 44% 0.00 in
16:35 86.0 °F 62.2 °F 30.03 in SE 3.0 mph 10.0 mph 45% 0.00 in
16:40 86.4 °F 63.2 °F 30.03 in ENE 8.0 mph 12.0 mph 46% 0.00 in
16:45 87.0 °F 64.3 °F 30.03 in ESE 1.0 mph 6.0 mph 47% 0.00 in
16:50 87.1 °F 62.6 °F 30.03 in ESE 8.0 mph 10.0 mph 44% 0.00 in
16:55 86.6 °F 60.8 °F 30.03 in ESE 7.0 mph 12.0 mph 42% 0.00 in
17:00 86.6 °F 62.8 °F 30.03 in SE 5.0 mph 8.0 mph 45% 0.00 in
17:06 86.7 °F 62.2 °F 30.03 in SE 5.0 mph 7.0 mph 44% 0.00 in
17:11 87.1 °F 63.2 °F 30.02 in SE 6.0 mph 8.0 mph 45% 0.00 in
17:16 87.5 °F 62.9 °F 30.02 in ESE 4.0 mph 8.0 mph 44% 0.00 in
17:21 87.5 °F 61.6 °F 30.02 in SE 5.0 mph 8.0 mph 42% 0.00 in
17:26 87.6 °F 63.7 °F 30.02 in SSE 4.0 mph 7.0 mph 45% 0.00 in
17:31 87.5 °F 61.6 °F 30.02 in SE 13.0 mph 13.0 mph 42% 0.00 in
17:36 87.3 °F 61.4 °F 30.02 in SSE 5.0 mph 9.0 mph 42% 0.00 in
17:41 87.5 °F 62.9 °F 30.02 in East 5.0 mph 6.0 mph 44% 0.00 in
17:46 87.5 °F 62.9 °F 30.02 in SE 5.0 mph 10.0 mph 44% 0.00 in
17:51 87.8 °F 62.5 °F 30.02 in SE 7.0 mph 9.0 mph 43% 0.00 in
17:56 87.1 °F 61.9 °F 30.02 in ESE 6.0 mph 11.0 mph 43% 0.00 in
18:01 87.0 °F 61.8 °F 30.01 in ESE 6.0 mph 11.0 mph 43% 0.00 in
18:06 87.1 °F 61.2 °F 30.01 in SE 6.0 mph 11.0 mph 42% 0.00 in
18:11 87.1 °F 63.2 °F 30.01 in SSE 4.0 mph 6.0 mph 45% 0.00 in
18:16 87.4 °F 62.2 °F 30.01 in East 5.0 mph 6.0 mph 43% 0.00 in
18:21 87.5 °F 62.9 °F 30.01 in ESE 2.0 mph 4.0 mph 44% 0.00 in
18:26 87.5 °F 62.9 °F 30.01 in SE 10.0 mph 10.0 mph 44% 0.00 in
18:31 87.4 °F 63.5 °F 30.01 in SSE 2.0 mph 6.0 mph 45% 0.00 in
18:37 87.6 °F 63.0 °F 30.00 in SE 6.0 mph 10.0 mph 44% 0.00 in
18:42 87.2 °F 63.3 °F 30.01 in SSE 8.0 mph 10.0 mph 45% 0.00 in
18:47 87.1 °F 63.8 °F 30.00 in ESE 6.0 mph 8.0 mph 46% 0.00 in
18:52 86.9 °F 62.4 °F 30.00 in ESE 4.0 mph 9.0 mph 44% 0.00 in
18:57 87.0 °F 64.3 °F 30.00 in SE 3.0 mph 5.0 mph 47% 0.00 in
19:02 87.0 °F 62.5 °F 30.00 in SE 7.0 mph 8.0 mph 44% 0.00 in
19:07 86.8 °F 62.9 °F 30.01 in SE 4.0 mph 7.0 mph 45% 0.00 in
19:12 86.6 °F 62.8 °F 30.01 in SE 7.0 mph 10.0 mph 45% 0.00 in
19:17 86.6 °F 62.1 °F 30.00 in ESE 4.0 mph 7.0 mph 44% 0.00 in
19:22 86.5 °F 62.7 °F 30.00 in ESE 5.0 mph 6.0 mph 45% 0.00 in
19:27 86.4 °F 61.9 °F 30.00 in SE 7.0 mph 8.0 mph 44% 0.00 in
19:32 86.3 °F 63.1 °F 30.00 in SE 2.0 mph 6.0 mph 46% 0.00 in
19:37 86.2 °F 63.6 °F 30.00 in SE 3.0 mph 6.0 mph 47% 0.00 in
19:42 86.1 °F 64.1 °F 30.00 in ESE 4.0 mph 5.0 mph 48% 0.00 in
19:47 86.0 °F 64.0 °F 30.00 in SE 3.0 mph 4.0 mph 48% 0.00 in
19:52 85.8 °F 63.9 °F 30.00 in SE 4.0 mph 5.0 mph 48% 0.00 in
19:57 85.6 °F 64.3 °F 30.00 in SE 3.0 mph 5.0 mph 49% 0.00 in
20:02 85.4 °F 64.7 °F 30.00 in SE 3.0 mph 4.0 mph 50% 0.00 in
20:07 85.2 °F 64.5 °F 30.00 in East 2.0 mph 4.0 mph 50% 0.00 in
20:12 85.0 °F 65.4 °F 30.00 in SE 2.0 mph 3.0 mph 52% 0.00 in
20:17 84.7 °F 65.7 °F 30.00 in ESE 1.0 mph 3.0 mph 53% 0.00 in
20:22 84.5 °F 65.5 °F 30.01 in ESE 2.0 mph 3.0 mph 53% 0.00 in
20:27 84.0 °F 66.1 °F 30.01 in SE 2.0 mph 2.0 mph 55% 0.00 in
20:32 83.5 °F 65.7 °F 30.01 in ESE 2.0 mph 3.0 mph 55% 0.00 in
20:37 83.1 °F 65.8 °F 30.01 in East 2.0 mph 3.0 mph 56% 0.00 in
20:42 82.7 °F 65.9 °F 30.01 in SE 1.0 mph 2.0 mph 57% 0.00 in
20:47 82.3 °F 65.6 °F 30.01 in ESE 2.0 mph 2.0 mph 57% 0.00 in
20:52 81.9 °F 65.7 °F 30.01 in ESE 1.0 mph 1.0 mph 58% 0.00 in
20:57 81.3 °F 65.6 °F 30.00 in SE 1.0 mph 1.0 mph 59% 0.00 in
21:03 80.6 °F 65.9 °F 30.01 in SE 1.0 mph 1.0 mph 61% 0.00 in
21:08 80.1 °F 65.4 °F 30.01 in ESE 1.0 mph 1.0 mph 61% 0.00 in
21:13 79.7 °F 65.5 °F 30.01 in Calm   1.0 mph 62% 0.00 in
21:18 79.2 °F 65.5 °F 30.01 in Calm   1.0 mph 63% 0.00 in
21:23 78.8 °F 65.6 °F 30.01 in Calm     64% 0.00 in
21:28 78.4 °F 65.7 °F 30.01 in Calm   1.0 mph 65% 0.00 in
21:33 78.0 °F 65.3 °F 30.01 in Calm     65% 0.00 in
21:38 77.7 °F 65.4 °F 30.01 in Calm     66% 0.00 in
21:43 77.4 °F 65.2 °F 30.01 in Calm   1.0 mph 66% 0.00 in
21:48 77.3 °F 65.5 °F 30.02 in Calm     67% 0.00 in
21:53 77.2 °F 65.4 °F 30.02 in ESE 1.0 mph 1.0 mph 67% 0.00 in
21:58 77.0 °F 65.6 °F 30.02 in SE 2.0 mph 2.0 mph 68% 0.00 in
22:03 77.1 °F 65.3 °F 30.02 in ESE 2.0 mph 2.0 mph 67% 0.00 in
22:08 77.0 °F 65.6 °F 30.02 in Calm   2.0 mph 68% 0.00 in
22:13 76.9 °F 65.5 °F 30.02 in ESE 1.0 mph 1.0 mph 68% 0.00 in
22:18 76.6 °F 65.7 °F 30.03 in Calm   1.0 mph 69% 0.00 in
22:23 76.4 °F 65.9 °F 30.02 in Calm   1.0 mph 70% 0.00 in
22:28 76.0 °F 65.5 °F 30.02 in ESE 2.0 mph 2.0 mph 70% 0.00 in
22:33 75.9 °F 65.8 °F 30.03 in ESE 2.0 mph 3.0 mph 71% 0.00 in
22:38 76.2 °F 65.3 °F 30.03 in SE 2.0 mph 3.0 mph 69% 0.00 in
22:43 76.1 °F 65.2 °F 30.03 in SE 2.0 mph 2.0 mph 69% 0.00 in
22:48 75.9 °F 65.0 °F 30.03 in SE 2.0 mph 3.0 mph 69% 0.00 in
22:53 75.7 °F 65.2 °F 30.03 in ESE 1.0 mph 1.0 mph 70% 0.00 in
22:58 75.6 °F 65.1 °F 30.04 in SE 1.0 mph 2.0 mph 70% 0.00 in
23:03 75.5 °F 65.4 °F 30.04 in SE 1.0 mph 1.0 mph 71% 0.00 in
23:08 75.2 °F 65.2 °F 30.04 in Calm     71% 0.00 in
23:13 74.6 °F 64.6 °F 30.04 in Calm     71% 0.00 in
23:18 73.9 °F 64.7 °F 30.05 in Calm     73% 0.00 in
23:23 73.5 °F 65.1 °F 30.05 in Calm     75% 0.00 in
23:28 73.4 °F 65.0 °F 30.05 in Calm     75% 0.00 in
23:33 72.9 °F 64.9 °F 30.05 in Calm     76% 0.00 in
23:38 72.6 °F 65.3 °F 30.05 in Calm     78% 0.00 in
23:43 72.8 °F 65.2 °F 30.05 in SE 1.0 mph 1.0 mph 77% 0.00 in
23:48 72.9 °F 65.3 °F 30.05 in SE 1.0 mph 1.0 mph 77% 0.00 in
23:54 73.3 °F 65.3 °F 30.05 in ESE 1.0 mph 2.0 mph 76% 0.00 in
23:59 73.6 °F 65.2 °F 30.05 in ESE 2.0 mph 2.0 mph 75% 0.00 in
Compliments of Weather Underground